7 * 24
多渠道服务支持
STARLINK-34479 是 SpaceX Starlink 卫星互联网项目中的一颗低轨卫星,属于 Starlink 群体部署的一部分。该卫星由 SpaceX 制造并发射,旨在为全球用户提供高速互联网接入服务。它运行在约 550 公里的近地轨道上,采用先进通信技术,支持宽带连接。Starlink 项目致力于改善偏远地区的网络覆盖,推动全球数字包容。STARLINK-34479 的运行有助于增强 Starlink 网络的稳定性和覆盖范围。
美国
(US)
| 数据来源 | 国际轨道数据 |
| 星历时间: | 2025-11-08T19:59:50+0800 1天前 查看轨道信息 |
| 半长轴: | 6950.165km |
| 偏心率: | 0.0002868 |
| 轨道倾角: | 70.002° |
| 近地点辐角 | 277.902° |
| 升交点赤经 | 340.225° |
| 平近点角 | 82.181° |
| 近地点: | 570.036km |
| 远地点: | 574.024km |
| 周期: | 96.106分钟 |
| 每日圈数: | 14.983391 |